Location: Gleizolles
(44.4833°N, 6.7667°E)
Time: 16:05:31
(UTC+00:00)

Tiros 1 - Pass Details

Date: 04 July 2024
Orbit: 624 x 656 km, 48.4° (Epoch: 13 July)

Event Time Altitude Azimuth Distance (km) Brightness Sun altitude
Rises 01:46:02 0° 287° (WNW) 2,907 10.4 -16.5°
Reaches altitude 10° 01:48:46 10° 272° (W) 2,000 9.4 -16.3°
Enters shadow 01:49:16 12° 267° (W) 1,858 9.2 -16.2°
Maximum altitude 01:52:15 22° 222° (SW) 1,391 - -16.0°
Drops below altitude 10° 01:55:45 10° 173° (S) 2,003 - -15.6°
Sets 01:58:30 0° 157° (SSE) 2,913 - -15.4°
